Location: Poughquag
(41.6090°N, 73.6820°W)
Time: 20:57:11
(UTC-04:00)

Tiangong 2 - Visible Passes

Search period start: 25 May 2019 00:00
Search period end: 04 June 2019 00:00
Orbit: 379 x 387 km, 42.8° (Epoch: 25 May)

Date Brightness Start Highest point End Pass type
(mag) Time Alt. Az. Time Alt. Az. Time Alt. Az.
25 May 1.3 21:22:11 10° W 21:25:18 68° N 21:28:14 11° E visible
25 May 3.0 22:58:56 10° W 23:00:24 25° W 23:00:24 25° W visible
26 May 0.9 21:58:52 10° WNW 22:02:01 87° SSW 22:02:59 41° ESE visible
27 May 1.2 20:58:49 10° W 21:01:57 75° N 21:05:05 10° E visible
27 May 2.4 22:35:37 10° W 22:37:41 31° WSW 22:37:41 31° WSW visible
28 May 1.1 21:35:29 10° W 21:38:36 62° SSW 21:40:13 25° SE visible
29 May 2.5 22:12:25 10° W 22:14:56 24° SSW 22:14:56 24° SSW visible
30 May 1.8 21:12:08 10° W 21:15:06 40° SSW 21:17:29 14° SE visible
31 May 3.2 21:49:33 10° WSW 21:51:25 15° SW 21:52:15 14° SSW visible
